TimeEDT,TemperatureF,Dew PointF,Humidity,Sea Level PressureIn,VisibilityMPH,Wind Direction,Wind SpeedMPH,Gust SpeedMPH,PrecipitationIn,Events,Conditions,WindDirDegrees,DateUTC
12:13 AM,71.6,68.0,88,29.95,10.0,SW,3.5,-,N/A,,Mostly Cloudy,220,2013-09-12 04:13:00
12:34 AM,71.6,68.0,88,29.94,10.0,South,5.8,-,N/A,,Scattered Clouds,190,2013-09-12 04:34:00
12:54 AM,71.6,68.0,88,29.94,10.0,SSW,4.6,-,N/A,,Scattered Clouds,210,2013-09-12 04:54:00
1:14 AM,71.6,68.0,88,29.94,10.0,SW,4.6,-,N/A,,Mostly Cloudy,220,2013-09-12 05:14:00
1:34 AM,71.6,68.0,88,29.94,10.0,SW,3.5,-,N/A,,Overcast,220,2013-09-12 05:34:00
1:53 AM,71.6,68.0,88,29.94,10.0,SW,3.5,-,N/A,,Overcast,220,2013-09-12 05:53:00
2:14 AM,71.6,66.2,83,29.94,7.0,SW,6.9,-,0.03,,Mostly Cloudy,220,2013-09-12 06:14:00
2:34 AM,71.6,66.2,83,29.93,10.0,SW,4.6,-,0.12,Rain,Light Rain,230,2013-09-12 06:34:00
2:54 AM,69.8,66.2,88,29.93,10.0,WSW,4.6,-,0.12,,Mostly Cloudy,240,2013-09-12 06:54:00
3:14 AM,69.8,66.2,88,29.92,10.0,West,4.6,-,N/A,,Mostly Cloudy,260,2013-09-12 07:14:00
3:34 AM,69.8,66.2,88,29.92,10.0,WSW,3.5,-,N/A,,Scattered Clouds,250,2013-09-12 07:34:00
3:54 AM,69.8,66.2,88,29.92,10.0,WSW,3.5,-,N/A,,Mostly Cloudy,250,2013-09-12 07:54:00
4:14 AM,69.8,66.2,88,29.92,10.0,WSW,4.6,-,N/A,,Scattered Clouds,240,2013-09-12 08:14:00
4:34 AM,69.8,66.2,88,29.92,10.0,WSW,4.6,-,N/A,,Mostly Cloudy,250,2013-09-12 08:34:00
4:54 AM,69.8,66.2,88,29.92,10.0,West,3.5,-,N/A,,Overcast,260,2013-09-12 08:54:00
5:14 AM,69.8,66.2,88,29.91,10.0,WSW,4.6,-,N/A,,Overcast,240,2013-09-12 09:14:00
5:34 AM,69.8,66.2,88,29.91,10.0,WSW,3.5,-,N/A,,Mostly Cloudy,240,2013-09-12 09:34:00
5:54 AM,69.8,66.2,88,29.91,10.0,West,3.5,-,N/A,,Mostly Cloudy,260,2013-09-12 09:54:00
6:14 AM,69.8,66.2,88,29.91,10.0,WSW,3.5,-,N/A,,Scattered Clouds,240,2013-09-12 10:14:00
6:33 AM,69.8,66.2,88,29.91,10.0,WSW,4.6,-,N/A,,Scattered Clouds,250,2013-09-12 10:33:00
6:54 AM,69.8,66.2,88,29.90,10.0,WSW,3.5,-,N/A,,Scattered Clouds,250,2013-09-12 10:54:00
7:14 AM,69.8,66.2,88,29.90,10.0,Calm,Calm,-,N/A,,Clear,0,2013-09-12 11:14:00
7:33 AM,69.8,66.2,88,29.91,7.0,Calm,Calm,-,N/A,,Clear,0,2013-09-12 11:33:00
7:54 AM,69.8,66.2,88,29.91,7.0,WSW,5.8,-,N/A,,Clear,250,2013-09-12 11:54:00
8:14 AM,69.8,66.2,88,29.91,7.0,WSW,5.8,-,N/A,,Clear,240,2013-09-12 12:14:00
8:34 AM,69.8,66.2,88,29.90,7.0,WSW,4.6,-,N/A,,Clear,240,2013-09-12 12:34:00
8:54 AM,69.8,66.2,88,29.90,7.0,WSW,4.6,-,N/A,,Clear,250,2013-09-12 12:54:00
9:14 AM,71.6,66.2,83,29.90,7.0,West,5.8,-,N/A,,Mostly Cloudy,260,2013-09-12 13:14:00
9:34 AM,71.6,66.2,83,29.90,10.0,WNW,6.9,-,N/A,,Overcast,290,2013-09-12 13:34:00
9:54 AM,71.6,66.2,83,29.90,10.0,WNW,8.1,-,N/A,,Overcast,300,2013-09-12 13:54:00
10:14 AM,71.6,66.2,83,29.91,10.0,NW,13.8,19.6,N/A,,Overcast,320,2013-09-12 14:14:00
10:34 AM,71.6,66.2,83,29.90,10.0,WNW,6.9,-,N/A,,Overcast,300,2013-09-12 14:34:00
10:54 AM,71.6,66.2,83,29.91,10.0,NW,9.2,-,N/A,,Overcast,310,2013-09-12 14:54:00
11:14 AM,71.6,66.2,83,29.90,10.0,NW,10.4,-,N/A,,Mostly Cloudy,310,2013-09-12 15:14:00
11:34 AM,71.6,64.4,78,29.90,10.0,WNW,9.2,-,N/A,,Scattered Clouds,300,2013-09-12 15:34:00
11:54 AM,73.4,64.4,73,29.91,10.0,WNW,8.1,-,N/A,,Scattered Clouds,300,2013-09-12 15:54:00
12:14 PM,73.4,64.4,73,29.91,10.0,NW,8.1,-,N/A,,Scattered Clouds,310,2013-09-12 16:14:00
12:34 PM,71.6,62.6,73,29.91,10.0,WNW,11.5,-,N/A,,Clear,300,2013-09-12 16:34:00
12:54 PM,71.6,62.6,73,29.91,10.0,NW,8.1,-,N/A,,Clear,320,2013-09-12 16:54:00
1:14 PM,73.4,62.6,69,29.91,10.0,WNW,8.1,-,N/A,,Clear,290,2013-09-12 17:14:00
1:34 PM,73.4,59.0,61,29.91,10.0,NW,8.1,-,N/A,,Clear,310,2013-09-12 17:34:00
1:53 PM,75.2,57.2,53,29.90,10.0,WNW,6.9,-,N/A,,Clear,300,2013-09-12 17:53:00
2:14 PM,77.0,57.2,50,29.88,10.0,NW,8.1,-,N/A,,Clear,320,2013-09-12 18:14:00
2:34 PM,77.0,53.6,44,29.88,10.0,NW,8.1,16.1,N/A,,Clear,310,2013-09-12 18:34:00
2:54 PM,78.8,53.6,42,29.87,10.0,NNW,6.9,-,N/A,,Clear,330,2013-09-12 18:54:00
3:14 PM,78.8,53.6,42,29.86,10.0,WNW,9.2,-,N/A,,Clear,300,2013-09-12 19:14:00
3:33 PM,78.8,53.6,42,29.86,10.0,NNW,10.4,-,N/A,,Clear,330,2013-09-12 19:33:00
3:54 PM,78.8,53.6,42,29.85,10.0,NW,12.7,-,N/A,,Clear,310,2013-09-12 19:54:00
4:14 PM,78.8,51.8,39,29.85,10.0,North,12.7,17.3,N/A,,Clear,350,2013-09-12 20:14:00
4:34 PM,78.8,53.6,42,29.85,10.0,NNW,11.5,-,N/A,,Clear,330,2013-09-12 20:34:00
4:54 PM,78.8,53.6,42,29.84,10.0,WNW,10.4,16.1,N/A,,Clear,290,2013-09-12 20:54:00
5:14 PM,78.8,51.8,39,29.84,10.0,NW,11.5,-,N/A,,Clear,320,2013-09-12 21:14:00
5:34 PM,77.0,51.8,41,29.83,10.0,NW,12.7,-,N/A,,Scattered Clouds,310,2013-09-12 21:34:00
5:54 PM,75.2,51.8,44,29.83,10.0,NNW,8.1,-,N/A,,Clear,330,2013-09-12 21:54:00
6:14 PM,75.2,51.8,44,29.83,10.0,NW,8.1,-,N/A,,Clear,310,2013-09-12 22:14:00
6:34 PM,75.2,53.6,47,29.84,10.0,NW,8.1,-,N/A,,Clear,310,2013-09-12 22:34:00
6:54 PM,75.2,53.6,47,29.85,10.0,NW,10.4,-,N/A,,Scattered Clouds,310,2013-09-12 22:54:00
7:14 PM,66.2,57.2,73,29.88,10.0,North,17.3,33.4,N/A,Rain,Rain,350,2013-09-12 23:14:00
7:34 PM,64.4,55.4,73,29.88,10.0,North,17.3,24.2,N/A,,Scattered Clouds,350,2013-09-12 23:34:00
7:54 PM,64.4,55.4,73,29.88,10.0,North,12.7,24.2,N/A,,Clear,350,2013-09-12 23:54:00
8:14 PM,64.4,57.2,77,29.88,10.0,North,8.1,-,N/A,,Scattered Clouds,350,2013-09-13 00:14:00
8:34 PM,64.4,57.2,77,29.88,10.0,North,12.7,18.4,N/A,,Clear,350,2013-09-13 00:34:00
8:54 PM,64.4,55.4,73,29.89,10.0,NNW,12.7,19.6,N/A,,Clear,340,2013-09-13 00:54:00
9:14 PM,64.4,55.4,73,29.91,10.0,NNW,11.5,-,N/A,,Clear,340,2013-09-13 01:14:00
9:34 PM,64.4,55.4,73,29.92,10.0,NNW,9.2,-,N/A,,Clear,330,2013-09-13 01:34:00
9:54 PM,62.6,55.4,77,29.92,10.0,North,6.9,-,N/A,,Clear,350,2013-09-13 01:54:00
10:14 PM,62.6,55.4,77,29.93,10.0,North,10.4,-,N/A,,Clear,350,2013-09-13 02:14:00
10:34 PM,62.6,53.6,72,29.93,10.0,North,10.4,-,N/A,,Scattered Clouds,350,2013-09-13 02:34:00
10:54 PM,62.6,53.6,72,29.94,10.0,NNW,11.5,17.3,N/A,,Clear,340,2013-09-13 02:54:00
11:14 PM,62.6,50.0,63,29.94,10.0,NNW,16.1,21.9,N/A,,Clear,340,2013-09-13 03:14:00
11:34 PM,60.8,48.2,63,29.94,10.0,North,12.7,19.6,N/A,,Clear,350,2013-09-13 03:34:00
11:54 PM,60.8,48.2,63,29.95,10.0,North,12.7,17.3,N/A,,Clear,350,2013-09-13 03:54:00